User: anonymous   Login
Location: Unspecified
(0.0000°N, 0.0000°E)
Time: 15:33:40
(UTC+00:00)
Language:

OGO 1 - Orbit

View from above orbital plane
View from above orbital plane
View from above satellite
View from above satellite

Ground track
Ground track

The orbit data is extracted from the following two-line orbital elements,

1 00879U 64054A   18103.49969018 -.00000073  00000-0  00000+0 0  9992
2 00879  82.8330 328.6683 7076005 201.0927   0.9677  0.37755420 18564
Epoch (UTC): 13 April 2018 11:59:33
Eccentricity: 0.7076005
inclination: 82.8330°
perigee height: 17266 km
apogee height: 131702 km
right ascension of ascending node: 328.6683°
argument of perigee: 201.0927°
revolutions per day: 0.37755420
mean anomaly at epoch: 0.9677°
orbit number at epoch: 1856

The dashed part of the orbit path shows where the satellite is in the earth's shadow,  

DLR